Location: Shenandoah County Park
(38.9356°N, 78.4524°W)
Time: 00:59:10
(UTC-05:00)

A-11 Canister half - Pass Details

Date: 13 December 2023
Orbit: 1526 x 1682 km, 47.3° (Epoch: 01 March)

Event Time Altitude Azimuth Distance (km) Brightness Sun altitude
Rises 18:07:18 0° 256° (WSW) 4,903 13.6 -14.2°
Reaches altitude 10° 18:10:30 10° 260° (W) 3,927 12.5 -14.8°
Maximum altitude 18:20:34 65° 341° (NNW) 1,822 9.3 -16.6°
Enters shadow 18:27:41 22° 58° (ENE) 3,070 10.0 -18.0°
